EW9042 Weather Reports


time (UTC)temp
C
wind
direction
speed
KPH
gust
KPH
rain 1hr
cm
rain 24hr
cm
rain mn
cm
humidity
%
barometer
mb
20260510093558 13 63 6.4 24.1 0.00 0.23 0.00 81 1010.5
20260510093100 13 78 14.5 24.1 0.00 0.23 0.00 80 1010.4
20260510092558 14 34 8.0 19.3 0.00 0.23 0.00 81 1010.4
20260510092057 14 63 4.8 17.7 0.00 0.23 0.00 82 1010.3
20260510091556 14 56 9.7 17.7 0.00 0.23 0.00 81 1010.2
20260510091056 14 53 6.4 17.7 0.00 0.23 0.00 82 1010.2
20260510090556 14 40 3.2 19.3 0.00 0.23 0.00 81 1010.3
20260510090056 14 61 9.7 22.5 0.00 0.23 0.00 81 1010.2
20260510085555 14 46 14.5 22.5 0.00 0.23 0.00 81 1010.2
20260510085055 14 37 8.0 25.7 0.00 0.23 0.00 82 1010.2
20260510084555 14 47 6.4 25.7 0.00 0.23 0.00 81 1010.2
20260510084055 15 15 6.4 19.3 0.00 0.23 0.00 80 1010.3
20260510083554 15 65 11.3 24.1 0.00 0.23 0.00 81 1010.3
20260510083054 15 49 9.7 24.1 0.00 0.23 0.00 81 1010.3
20260510082555 14 98 3.2 20.9 0.00 0.23 0.00 82 1010.3
20260510082052 14 62 8.0 20.9 0.00 0.23 0.00 83 1010.3
20260510081606 14 59 3.2 19.3 0.00 0.23 0.00 85 1010.4
20260510081049 13 44 9.7 22.5 0.00 0.23 0.00 83 1010.4
20260510080548 13 61 8.0 27.4 0.00 0.23 0.00 83 1010.5
20260510080055 13 49 6.4 27.4 0.00 0.23 0.00 82 1010.5
20260510075548 14 67 3.2 24.1 0.00 0.25 0.00 83 1010.5
20260510075050 14 39 1.6 24.1 0.00 0.25 0.00 84 1010.5
20260510074547 13 76 6.4 25.7 0.00 0.25 0.00 83 1010.6
20260510074045 13 30 8.0 27.4 0.00 0.25 0.00 85 1010.5
20260510073544 13 34 12.9 27.4 0.00 0.25 0.00 84 1010.4
20260510073044 13 28 16.1 27.4 0.00 0.25 0.00 86 1010.4
20260510072543 13 76 14.5 30.6 0.00 0.25 0.00 86 1010.3
20260510072043 12 60 8.0 30.6 0.00 0.25 0.00 87 1010.4
20260510071540 12 55 14.5 27.4 0.00 0.25 0.00 88 1010.3
20260510071037 12 51 12.9 24.1 0.00 0.25 0.00 90 1010.4
20260510070537 12 37 8.0 24.1 0.00 0.25 0.00 91 1010.4
20260510070036 12 49 9.7 24.1 0.00 0.25 0.00 92 1010.4
20260510065536 12 9 6.4 19.3 0.00 0.25 0.00 92 1010.4
20260510065034 12 60 4.8 19.3 0.00 0.25 0.00 92 1010.4
20260510064534 12 51 0.0 14.5 0.00 0.25 0.00 92 1010.4
20260510064033 12 37 1.6 19.3 0.00 0.25 0.00 93 1010.4
20260510063533 11 40 9.7 20.9 0.00 0.25 0.00 93 1010.4
20260510063033 11 17 6.4 20.9 0.00 0.25 0.00 93 1010.4
20260510062533 11 93 0.0 24.1 0.00 0.25 0.00 93 1010.4
20260510062031 11 10 8.0 24.1 0.00 0.25 0.00 93 1010.4
20260510061536 11 62 4.8 17.7 0.00 0.25 0.00 94 1010.4
20260510061031 11 58 3.2 19.3 0.00 0.25 0.00 94 1010.3
20260510060530 11 49 0.0 17.7 0.00 0.25 0.00 94 1010.3
20260510060045 11 44 1.6 17.7 0.00 0.25 0.00 94 1010.3
20260510055529 11 46 1.6 11.3 0.00 0.25 0.00 94 1010.2
20260510055029 11 24 4.8 17.7 0.00 0.25 0.00 94 1010.1
20260510054529 11 40 9.7 20.9 0.00 0.25 0.00 94 1010.1
20260510054029 11 16 3.2 20.9 0.00 0.25 0.00 94 1010.1
20260510053528 11 64 3.2 17.7 0.00 0.25 0.00 94 1010.0
20260510053030 11 30 4.8 19.3 0.00 0.25 0.00 94 1010.0
20260510052527 11 19 3.2 19.3 0.00 0.25 0.00 94 1010.0
20260510052027 11 72 6.4 14.5 0.00 0.25 0.00 94 1010.0
20260510051527 11 16 1.6 14.5 0.00 0.25 0.00 94 1010.0
20260510051026 11 5 1.6 14.5 0.00 0.25 0.00 95 1010.0
20260510050525 11 9 0.0 14.5 0.00 0.25 0.00 95 1009.9
20260510050026 11 34 0.0 12.9 0.00 0.25 0.00 95 1009.8
20260510045529 11 35 1.6 14.5 0.00 0.28 0.00 95 1009.8
20260510045025 11 13 4.8 19.3 0.00 0.28 0.00 95 1009.8
20260510044526 11 63 1.6 19.3 0.00 0.28 0.00 95 1009.8
20260510044027 11 21 1.6 14.5 0.00 0.28 0.00 95 1009.8
20260510043525 11 42 0.0 14.5 0.00 0.28 0.00 95 1009.8
20260510043025 11 38 3.2 17.7 0.00 0.28 0.00 95 1009.8
20260510042524 11 52 6.4 17.7 0.00 0.28 0.00 95 1009.8
20260510042022 11 69 3.2 17.7 0.00 0.28 0.00 95 1009.8
20260510041528 11 44 6.4 19.3 0.00 0.28 0.00 95 1009.8
20260510041021 11 38 8.0 19.3 0.00 0.28 0.00 95 1009.9
20260510040521 11 32 3.2 19.3 0.00 0.28 0.00 95 1009.8
20260510040021 11 46 4.8 22.5 0.00 0.28 0.00 95 1009.9
20260510035520 11 49 9.7 22.5 0.00 0.30 0.00 95 1009.9
20260510035022 11 28 4.8 17.7 0.00 0.30 0.00 95 1010.0
20260510034519 11 66 4.8 17.7 0.00 0.30 0.00 95 1010.1
20260510034019 11 63 4.8 20.9 0.00 0.30 0.00 95 1010.0
20260510033518 11 71 6.4 20.9 0.00 0.30 0.00 95 1010.0
20260510033018 11 40 1.6 17.7 0.00 0.30 0.00 95 1010.0
20260510032518 11 63 3.2 19.3 0.00 0.30 0.00 95 1010.0
20260510032017 11 32 6.4 22.5 0.00 0.30 0.00 95 1010.0
20260510031516 11 44 9.7 22.5 0.00 0.30 0.00 95 1010.0
20260510031016 11 74 1.6 24.1 0.00 0.30 0.00 95 1010.0
20260510030515 11 39 6.4 24.1 0.00 0.30 0.00 95 1010.1
20260510030015 11 11 8.0 20.9 0.00 0.30 0.00 95 1010.1
20260510025514 11 15 3.2 24.1 0.00 0.30 0.00 95 1010.2
20260510025016 11 28 6.4 30.6 0.00 0.30 0.00 95 1010.2
20260510024513 11 87 3.2 30.6 0.00 0.30 0.00 95 1010.2
20260510024012 11 34 1.6 19.3 0.00 0.30 0.00 95 1010.3
20260510023512 12 38 6.4 22.5 0.00 0.30 0.00 95 1010.3
20260510023029 12 49 6.4 19.3 0.00 0.30 0.00 95 1010.4
20260510022512 11 17 3.2 24.1 0.00 0.30 0.00 95 1010.5
20260510022009 11 15 6.4 24.1 0.00 0.30 0.00 95 1010.6
20260510021508 11 32 1.6 16.1 0.00 0.30 0.00 95 1010.6
20260510021008 11 43 0.0 16.1 0.00 0.30 0.00 95 1010.7
20260510020508 11 18 0.0 22.5 0.00 0.30 0.00 95 1010.7
20260510020007 11 49 1.6 22.5 0.00 0.30 0.00 95 1010.7
20260510015507 11 10 3.2 12.9 0.00 0.30 0.00 95 1010.7
20260510015006 11 5 1.6 8.0 0.00 0.30 0.00 96 1010.8
20260510014506 11 40 0.0 12.9 0.00 0.30 0.00 96 1010.9
20260510014005 11 36 1.6 12.9 0.00 0.30 0.00 96 1010.9
20260510013509 11 40 0.0 8.0 0.00 0.30 0.00 96 1010.9
20260510013011 10 28 0.0 6.4 0.00 0.30 0.00 96 1011.0
20260510012505 10 36 0.0 6.4 0.00 0.30 0.00 96 1011.1
20260510012003 10 48 0.0 6.4 0.00 0.30 0.00 95 1011.2
20260510011508 9 25 0.0 6.4 0.00 0.30 0.00 94 1011.2
20260510011005 9 52 0.0 0.0 0.00 0.30 0.00 94 1011.2
20260510010501 10 55 0.0 0.0 0.00 0.30 0.00 94 1011.2
20260510010004 10 55 0.0 0.0 0.00 0.30 0.00 94 1011.3
20260510005601 10 55 0.0 0.0 0.00 0.30 0.00 94 1011.3
20260510005059 10 54 0.0 0.0 0.00 0.30 0.00 94 1011.3
20260510004600 10 55 0.0 0.0 0.00 0.30 0.00 94 1011.4
20260510004058 10 55 0.0 0.0 0.00 0.30 0.00 94 1011.4
20260510003559 10 55 0.0 0.0 0.00 0.30 0.00 94 1011.5
20260510003103 10 55 0.0 0.0 0.00 0.30 0.00 93 1011.5
20260510002555 10 54 0.0 0.0 0.00 0.30 0.00 93 1011.6
20260510002054 10 54 0.0 0.0 0.00 0.30 0.00 94 1011.7
20260510001553 10 54 0.0 0.0 0.00 0.30 0.00 94 1011.8
20260510001053 10 54 0.0 0.0 0.00 0.30 0.00 93 1011.8
20260510000552 10 54 0.0 0.0 0.00 0.30 0.00 93 1011.8
20260510000052 10 54 0.0 0.0 0.00 0.30 0.00 94 1011.8
20260509235550 10 54 0.0 0.0 0.00 0.30 0.00 94 1011.8
20260509235051 10 54 0.0 0.0 0.00 0.30 0.00 94 1011.9
20260509234550 10 54 0.0 0.0 0.00 0.30 0.00 94 1011.9
20260509234050 10 54 0.0 0.0 0.00 0.30 0.00 93 1011.9
20260509233548 10 54 0.0 0.0 0.00 0.30 0.00 93 1012.0
20260509233048 11 54 0.0 0.0 0.00 0.30 0.00 93 1012.1
20260509232547 11 54 0.0 0.0 0.00 0.30 0.00 93 1012.1
20260509232048 11 54 0.0 0.0 0.00 0.30 0.00 93 1012.1
20260509231552 11 54 0.0 0.0 0.00 0.30 0.00 93 1012.1
20260509231044 11 54 0.0 0.0 0.00 0.30 0.00 93 1012.2
20260509230544 11 54 0.0 0.0 0.00 0.30 0.00 93 1012.3
20260509230044 11 54 0.0 0.0 0.00 0.30 0.00 93 1012.4
20260509225542 11 54 0.0 0.0 0.00 0.30 0.00 93 1012.4
20260509225041 11 54 0.0 0.0 0.00 0.30 0.00 93 1012.4
20260509224541 11 54 0.0 0.0 0.00 0.30 0.00 93 1012.5
20260509224041 11 54 0.0 0.0 0.00 0.30 0.00 93 1012.5
20260509223540 11 54 0.0 0.0 0.00 0.30 0.00 93 1012.4
20260509223040 11 54 0.0 0.0 0.00 0.30 0.00 93 1012.4
20260509222541 11 54 0.0 0.0 0.00 0.30 0.00 93 1012.4
20260509222038 12 54 0.0 0.0 0.00 0.30 0.00 92 1012.4
20260509221540 12 54 0.0 0.0 0.00 0.30 0.00 92 1012.4
20260509221037 12 54 0.0 0.0 0.00 0.30 0.00 93 1012.4
20260509220537 12 54 0.0 0.0 0.00 0.30 0.00 93 1012.5
20260509220037 12 54 0.0 0.0 0.00 0.30 0.00 93 1012.7
20260509215534 12 54 0.0 0.0 0.00 0.30 0.30 93 1012.7
20260509215036 12 54 0.0 0.0 0.00 0.30 0.30 93 1012.7
20260509214534 12 54 0.0 0.0 0.00 0.30 0.30 92 1012.7
20260509214034 12 54 0.0 0.0 0.00 0.30 0.30 92 1012.7
20260509213534 12 54 0.0 0.0 0.00 0.30 0.30 92 1012.7
20260509213037 12 54 0.0 0.0 0.00 0.30 0.30 92 1012.7
20260509212533 12 54 0.0 0.0 0.00 0.30 0.30 92 1012.7
20260509212032 12 54 0.0 0.0 0.00 0.30 0.30 92 1012.8
20260509211603 12 54 0.0 0.0 0.00 0.30 0.30 92 1012.9
20260509211033 12 54 0.0 0.0 0.00 0.30 0.30 92 1012.9
20260509210534 12 54 0.0 0.0 0.00 0.30 0.30 92 1012.9
20260509210033 13 54 0.0 0.0 0.00 0.30 0.30 92 1012.8
20260509205532 13 54 0.0 0.0 0.00 0.30 0.30 92 1012.8
20260509205032 13 54 0.0 0.0 0.00 0.30 0.30 92 1012.8
20260509204534 13 54 0.0 0.0 0.00 0.30 0.30 92 1012.7
20260509204032 13 54 0.0 0.0 0.00 0.30 0.30 92 1012.6
20260509203532 13 54 0.0 0.0 0.00 0.30 0.30 92 1012.6
20260509203040 13 54 0.0 0.0 0.00 0.30 0.30 92 1012.6
20260509202535 13 53 0.0 0.0 0.00 0.30 0.30 92 1012.6
20260509202030 13 53 0.0 0.0 0.00 0.30 0.30 92 1012.6
20260509201531 13 53 0.0 0.0 0.00 0.30 0.30 92 1012.7
20260509201030 13 53 0.0 0.0 0.00 0.30 0.30 91 1012.6
20260509200530 13 53 0.0 0.0 0.03 0.30 0.30 91 1012.5
20260509200032 13 53 0.0 0.0 0.03 0.30 0.30 91 1012.6
20260509195530 13 53 0.0 1.6 0.05 0.30 0.30 91 1012.6
20260509195030 13 65 0.0 0.0 0.05 0.30 0.30 91 1012.5
20260509194530 13 90 0.0 0.0 0.05 0.30 0.30 91 1012.5
20260509194030 13 90 0.0 0.0 0.13 0.30 0.30 90 1012.5
20260509193530 13 90 0.0 0.0 0.18 0.30 0.30 90 1012.6
20260509193030 13 90 0.0 0.0 0.23 0.30 0.30 90 1012.5
20260509192529 13 90 0.0 0.0 0.23 0.30 0.30 90 1012.5
20260509192029 13 90 0.0 0.0 0.23 0.30 0.30 89 1012.4
20260509191529 14 90 0.0 0.0 0.23 0.30 0.30 89 1012.3
20260509191032 14 90 0.0 0.0 0.23 0.30 0.30 88 1012.3
20260509190528 14 90 0.0 0.0 0.23 0.28 0.28 87 1012.4
20260509190028 14 83 0.0 0.0 0.23 0.28 0.28 86 1012.5
20260509185528 15 72 0.0 0.0 0.20 0.25 0.25 85 1012.5
20260509185027 15 72 0.0 0.0 0.20 0.25 0.25 84 1012.4
20260509184527 15 72 0.0 0.0 0.15 0.23 0.23 83 1012.3
20260509184027 15 73 0.0 14.5 0.10 0.15 0.15 81 1012.2
20260509183531 15 88 0.0 16.1 0.05 0.13 0.13 79 1012.2
20260509183026 16 86 3.2 16.1 0.03 0.08 0.08 78 1012.1
20260509182525 16 70 0.0 16.1 0.03 0.08 0.08 76 1011.9
20260509182025 16 70 4.8 16.1 0.00 0.05 0.05 75 1011.8
20260509181527 16 75 3.2 16.1 0.00 0.05 0.05 73 1011.8
20260509181026 16 55 6.4 20.9 0.00 0.05 0.05 72 1011.8
20260509180527 17 71 4.8 20.9 0.00 0.05 0.05 71 1011.7
20260509180025 17 55 3.2 16.1 0.00 0.05 0.05 71 1011.6
20260509175525 17 54 1.6 16.1 0.00 0.05 0.05 71 1011.5
20260509175024 17 21 6.4 17.7 0.00 0.05 0.05 70 1011.4
20260509174524 17 54 6.4 17.7 0.00 0.05 0.05 70 1011.4
20260509174027 17 44 8.0 17.7 0.00 0.05 0.05 70 1011.4
20260509173523 17 39 3.2 17.7 0.00 0.05 0.05 71 1011.2
20260509173023 17 38 6.4 17.7 0.00 0.05 0.05 70 1011.2
20260509172525 17 39 3.2 16.1 0.00 0.05 0.05 70 1011.1
20260509172023 17 18 0.0 16.1 0.00 0.05 0.05 70 1011.1
20260509171522 17 15 8.0 22.5 0.00 0.05 0.05 69 1011.1
20260509171022 17 51 8.0 24.1 0.00 0.05 0.05 68 1011.1
20260509170522 17 35 11.3 24.1 0.00 0.05 0.05 67 1011.1
20260509170021 17 27 9.7 25.7 0.00 0.05 0.05 69 1011.1
20260509165521 17 5 12.9 25.7 0.00 0.05 0.05 70 1011.1
20260509165020 17 10 6.4 24.1 0.00 0.05 0.05 69 1011.2
20260509164520 18 28 8.0 24.1 0.00 0.05 0.05 69 1011.2
20260509164021 18 10 6.4 24.1 0.00 0.05 0.05 69 1011.0
20260509163520 18 17 9.7 25.7 0.00 0.05 0.05 68 1011.1
20260509163023 18 17 12.9 25.7 0.00 0.05 0.05 67 1011.0
20260509162519 18 67 11.3 27.4 0.00 0.05 0.05 67 1011.2
20260509162020 18 5 11.3 27.4 0.00 0.05 0.05 65 1011.3
20260509161520 18 48 4.8 20.9 0.00 0.05 0.05 67 1011.2
20260509161018 18 51 8.0 22.5 0.00 0.05 0.05 67 1011.3
20260509160519 18 31 11.3 22.5 0.00 0.05 0.05 66 1011.2
20260509160019 18 28 3.2 19.3 0.00 0.05 0.05 66 1011.1
20260509155518 18 24 3.2 16.1 0.00 0.05 0.05 67 1011.1
20260509155016 19 42 6.4 19.3 0.00 0.05 0.05 67 1011.2
20260509154517 19 347 3.2 19.3 0.00 0.05 0.05 68 1011.3
20260509154015 19 48 6.4 19.3 0.00 0.05 0.05 67 1011.4
20260509153516 19 17 8.0 20.9 0.00 0.05 0.05 68 1011.4
20260509153020 19 30 6.4 20.9 0.00 0.05 0.05 67 1011.4
20260509152514 20 360 6.4 22.5 0.00 0.05 0.05 66 1011.4
20260509152018 20 51 6.4 24.1 0.00 0.05 0.05 68 1011.4
20260509151514 20 49 12.9 24.1 0.00 0.05 0.05 67 1011.4
20260509151013 20 20 3.2 20.9 0.00 0.05 0.05 67 1011.4
20260509150513 20 49 12.9 20.9 0.00 0.05 0.05 68 1011.6
20260509150014 20 12 8.0 22.5 0.00 0.05 0.05 70 1011.5
20260509145514 20 28 9.7 17.7 0.00 0.05 0.05 68 1011.6
20260509145014 20 15 6.4 16.1 0.00 0.05 0.05 71 1011.5
20260509144510 20 31 6.4 19.3 0.00 0.05 0.05 72 1011.7
20260509144009 20 355 8.0 17.7 0.00 0.05 0.05 70 1011.8
20260509143509 20 73 6.4 17.7 0.00 0.05 0.05 71 1011.9
20260509143009 20 9 4.8 17.7 0.00 0.05 0.05 71 1011.9
20260509142512 20 34 6.4 16.1 0.00 0.05 0.05 72 1011.9
20260509142007 20 46 4.8 17.7 0.00 0.05 0.05 71 1012.0
20260509141506 20 63 8.0 17.7 0.00 0.05 0.05 73 1012.0
20260509141009 19 28 1.6 17.7 0.00 0.05 0.05 72 1012.1
20260509140503 19 24 3.2 14.5 0.00 0.05 0.05 76 1012.2
20260509140004 18 355 4.8 14.5 0.00 0.05 0.05 74 1012.3
20260509135505 18 346 4.8 14.5 0.00 0.05 0.05 75 1012.3
20260509135002 18 27 4.8 16.1 0.00 0.05 0.05 75 1012.4
20260509134502 18 348 6.4 16.1 0.00 0.05 0.05 76 1012.4
20260509134001 18 11 0.0 11.3 0.00 0.05 0.05 77 1012.4
20260509133502 18 17 0.0 8.0 0.00 0.05 0.05 78 1012.5
20260509133002 17 38 0.0 14.5 0.00 0.05 0.05 76 1012.4
20260509132502 17 360 3.2 14.5 0.00 0.05 0.05 78 1012.3
20260509132001 17 16 0.0 6.4 0.00 0.05 0.05 80 1012.4
20260509131501 17 17 0.0 0.0 0.00 0.05 0.05 82 1012.4
20260509131003 17 17 0.0 9.7 0.00 0.05 0.05 78 1012.4
20260509130501 17 17 3.2 14.5 0.00 0.05 0.05 78 1012.3
20260509130003 17 34 1.6 14.5 0.00 0.05 0.05 78 1012.2
20260509125600 17 20 1.6 9.7 0.00 0.05 0.05 78 1012.2
20260509125059 17 22 0.0 6.4 0.00 0.05 0.05 77 1012.3
20260509124606 17 22 0.0 6.4 0.00 0.05 0.05 78 1012.4
20260509124058 17 35 0.0 1.6 0.00 0.05 0.05 77 1012.5
20260509123600 17 49 0.0 0.0 0.00 0.05 0.05 77 1012.6
20260509123058 17 49 0.0 0.0 0.00 0.05 0.05 76 1012.6
20260509122557 17 49 0.0 0.0 0.00 0.05 0.05 75 1012.6
20260509122057 17 49 0.0 8.0 0.00 0.05 0.05 72 1012.7
20260509121557 17 49 0.0 12.9 0.00 0.05 0.05 71 1012.7
20260509121058 17 69 1.6 12.9 0.00 0.05 0.05 70 1012.7
20260509120557 17 92 3.2 14.5 0.00 0.05 0.05 69 1012.6
20260509120058 17 45 3.2 17.7 0.00 0.05 0.05 69 1012.6
20260509115556 17 49 6.4 17.7 0.00 0.05 0.05 67 1012.6
20260509115056 17 112 6.4 14.5 0.00 0.05 0.05 66 1012.6
20260509114600 18 63 0.0 12.9 0.00 0.05 0.05 66 1012.6
20260509114055 18 113 3.2 12.9 0.00 0.05 0.05 66 1012.5
20260509113556 18 83 0.0 16.1 0.00 0.05 0.05 66 1012.5
20260509113055 18 74 4.8 16.1 0.00 0.05 0.05 66 1012.5
20260509112554 18 33 0.0 17.7 0.00 0.05 0.05 66 1012.5
20260509112054 18 33 0.0 17.7 0.00 0.05 0.05 64 1012.5
20260509111557 18 97 3.2 16.1 0.00 0.05 0.05 63 1012.5
20260509111054 18 62 1.6 20.9 0.00 0.05 0.05 63 1012.6
20260509110557 19 94 6.4 20.9 0.00 0.05 0.05 63 1012.6
20260509110057 19 128 9.7 22.5 0.00 0.05 0.05 63 1012.6
20260509105551 18 77 8.0 22.5 0.00 0.05 0.05 66 1012.6
20260509105050 18 120 8.0 22.5 0.00 0.05 0.05 66 1012.7
20260509104549 18 63 6.4 22.5 0.00 0.05 0.05 70 1012.7
20260509104049 18 49 6.4 22.5 0.00 0.05 0.05 67 1012.7
20260509103546 18 77 8.0 20.9 0.00 0.05 0.05 72 1012.7
20260509103046 17 57 3.2 20.9 0.00 0.05 0.05 70 1012.7
20260509102544 17 42 4.8 17.7 0.00 0.05 0.05 74 1012.7
20260509102043 17 40 3.2 17.7 0.00 0.05 0.05 74 1012.8
20260509101542 17 71 8.0 17.7 0.00 0.05 0.05 70 1012.9
20260509101041 17 53 9.7 17.7 0.00 0.05 0.05 72 1012.9
20260509100540 16 42 4.8 14.5 0.00 0.05 0.05 72 1012.9
20260509100040 16 55 1.6 11.3 0.00 0.05 0.05 71 1012.9
20260509095540 16 60 0.0 11.3 0.00 0.05 0.05 74 1012.9
20260509095038 16 24 0.0 12.9 0.00 0.05 0.05 72 1012.9
20260509094539 16 73 3.2 16.1 0.00 0.05 0.05 71 1013.0
20260509094037 16 34 4.8 16.1 0.00 0.05 0.05 72 1012.9